To NAV CANADA Home Page Login to a new session Search on AWWS site Feedback and Comments Disclaimer Vers la page française équivalente Tips FAQ What's new on the site To the Forecasts and Observations / NOTAM section To "File a Flight Plan" website Publications and other links Update of the User's profile FIC Telephone Numbers My Weather Data Folder Route Weather Data Regional Weather Data Local Weather Data To the Forecasts and Observations / NOTAM section
Request Generated 01/21/2017 at 02:10:34 UTC . Weather information available at that time is displayed.

METAR/TAF

QUAQTAQ/QC    

LWIS CYHA 210200Z AUTO 31012KT M19/M21 A3006=
LWIS CYHA 210100Z AUTO 32013KT M18/M20 A3005=
LWIS CYHA 210000Z AUTO 35012KT M18/M20 A3004=

*** REMARK        : Forecast period has ended; this was the last TAF issued
*** REMARQUE : La période de prévision est échue; ceci était le dernier TAF qui a été émis
TAF CYHA 201439Z 2015/2022 FCST NOT AVBL DUE NO OBS
RMK NXT FCST WILL BE ISSUED AT 211445Z=
Your time UTC time
Weather data provided by Environment Canada and NAV CANADA